www.pogodaiklimat.ru

Погода и климат >> Архив погоды >> Сербия >> Лозница


ПОГОДА в Лознице

  • Прогноз погоды в Лознице
  • Монитор погоды в Лознице

АРХИВ ПОГОДЫ в Лознице

Время (UTC), дата Ветер
(напр.,м/с)
 
Видим.   Явления Облачность Т
(С)
Тd
(С)
f
(%)
Тe
(С)
Тes
(С)
Комфортность P
(гПа)
Po
(гПа)
Тmin
(С)
Tmax
(С)
R
(мм)
R24
(мм)
S
(см)
10 13.09 СЗ 3 20 км 5/5 1000 м
[Cu Sc]
+24.9 +12.0 45 +27 +31 жарко 1030.2 1015.8
11 13.09 СЗ 3 30 км 5/5 1000 м
[Cu Sc]
+25.4 +11.7 42 +27 +32 жарко 1029.7 1015.4
12 13.09 СЗ 3 30 км 5/5 1000 м
[Cu Sc]
+26.0 +11.6 41 +27 +32 жарко 1029.1 1014.9
13 13.09 СЗ 3 30 км 5/5 1000 м
[Cu Sc]
+26.2 +11.5 40 +27 +31 жарко 1028.5 1014.3
14 13.09 СЗ 2 30 км 5/5 1000 м
[Cu Sc]
+26.4 +10.9 38 +27 +30 жарко 1027.9 1013.7
15 13.09 С 2 30 км 5/5 1000 м
[Cu Sc]
+26.4 +10.9 38 +27 +29 жарко 1027.7 1013.5
16 13.09 С 2 30 км 4/4 1000 м
[Cu hum]
+26.0 +11.4 40 +27 +27 жарко 1027.5 1013.3
17 13.09 З 1 30 км 3/3 1000 м
[Sc]
+23.6 +11.8 47 +25 +25 комфорт 1027.6 1013.3
18 13.09 Ю 1 30 км ясно +20.9 +12.5 59 +24 +24 комфорт 1028.6 1014.1 +27.0
19 13.09 ЮЗ 2 30 км ясно +19.0 +13.3 70 +21 +21 комфорт 1028.9 1014.4
20 13.09 ЮЗ 2 30 км ясно +17.8 +13.2 74 +18 +18 1029.3 1014.6
21 13.09 ЮЗ 2 30 км ясно +16.9 +13.3 79 +17 +17 1029.5 1014.8
22 13.09 Ю 2 28 км 4/0
[Ac trans]
+16.3 +13.5 83 +16 +16 1029.5 1014.8
23 13.09 Ю 1 30 км 3/0
[Ac trans]
+15.4 +12.4 82 +16 +16 1029.6 1014.8
00 14.09 Ю 1 30 км ясно +14.8 +12.4 86 +15 +15 1029.4 1014.6
01 14.09 ЮЗ 1 30 км ясно +14.8 +12.4 86 +15 +15 1029.4 1014.6
02 14.09 Ю 1 30 км ясно +14.3 +12.4 88 +15 +15 1029.1 1014.3
03 14.09 штиль 0 30 км ясно +14.3 +12.4 88 +14 +14 1029.1 1014.3
04 14.09 ЮЗ 1 30 км 4/0
[Ac trans]
+14.1 +12.2 88 +14 +14 1028.9 1014.1
05 14.09 ЮЗ 1 30 км 4/0
[Ac trans]
+14.1 +12.2 88 +14 +14 1029.2 1014.4
06 14.09 ЮЗ 2 30 км 8/0
[Ac As]
+14.9 +12.9 88 +15 +15 1029.1 1014.4 +13.9
07 14.09 ЮЗ 2 30 км 8/0
[Ac As]
+17.0 +13.5 80 +17 +19 1029.4 1014.8
08 14.09 ЮЗ 3 30 км 8/4 1000 м
[Sc Ac As]
+19.2 +14.9 76 +21 +23 комфорт 1029.2 1014.7
09 14.09 ЮЗ 2 30 км 3/3 1000 м
[Cu hum]
+22.6 +16.2 67 +27 +34 душно 1028.9 1014.5
10 14.09 ЮЗ 2 30 км 4/4 1000 м
[Cu med, cong]
+24.7 +14.8 54 +27 +34 жарко 1014.8 1014.0
11 14.09 СЗ 2 30 км 4/4 1000 м
[Cu med, cong]
+25.1 +14.6 52 +28 +35 жарко 1027.9 1013.7
12 14.09 СЗ 3 30 км 5/5 1000 м
[Cu med, cong]
+26.1 +14.9 50 +29 +33 жарко 1027.6 1013.3
13 14.09 С 3 30 км 5/5 1000 м
[Cu med, cong]
+25.9 +13.5 46 +28 +31 жарко 1026.8 1012.6
14 14.09 С 2 20 км 6/6 1000 м
[Cu Sc]
+25.7 +13.4 47 +28 +30 жарко 1026.6 1012.4
15 14.09 С 2 20 км 4/4 1000 м
[Cu Sc]
+26.7 +13.9 45 +29 +30 жарко 1025.9 1011.8
16 14.09 СЗ 2 20 км 5/5 1000 м
[Cu Sc]
+26.3 +13.6 45 +28 +29 жарко 1025.8 1011.7
17 14.09 З 1 20 км 5/5 1000 м
[Cu Sc]
+24.5 +14.5 54 +27 +27 жарко 1025.9 1011.7
18 14.09 Ю 1 20 км 4/0
[Ac trans]
+21.8 +14.7 64 +25 +25 комфорт 1026.4 1012.1 +27.3
19 14.09 ЮЗ 1 20 км 8/5
[Sc Ac trans]
+20.7 +15.5 72 +25 +25 комфорт 1027.4 1012.9
20 14.09 ЮЗ 1 20 км 5/4 1000 м
[Sc Ac trans]
+19.7 +15.6 77 +23 +23 комфорт 1027.6 1013.1
21 14.09 ЮЗ 2 20 км 3/0
[Ac trans]
+19.3 +15.8 80 +22 +22 комфорт 1027.8 1013.3
22 14.09 ЮЗ 2 20 км 5/0
[Ac trans]
+18.9 +15.9 83 +21 +21 комфорт 1027.8 1013.3
23 14.09 ЮЗ 1 20 км 8/4
[Sc Ac trans]
+17.9 +16.0 89 +19 +19 1027.9 1013.4
00 15.09 ЮЗ 1 20 км 4/0
[Ac trans]
+17.3 +15.7 90 +18 +18 1027.9 1013.4
01 15.09 Ю 1 20 км 3/0
[Ac trans]
+17.0 +15.4 90 +18 +18 1028.0 1013.5
02 15.09 ЮЗ 1 20 км ясно +16.0 +14.7 92 +17 +17 1027.9 1013.3
03 15.09 ЮЗ 1 20 км ясно +15.2 +13.9 92 +16 +16 1027.9 1013.2
04 15.09 штиль 0 20 км ясно +13.5 +12.5 94 +13 +13 1028.0 1013.2
05 15.09 штиль 0 20 км ясно +13.6 +12.4 92 +13 +13 1028.0 1013.2
06 15.09 Ю 1 20 км ясно +14.4 +12.7 90 +15 +16 1027.5 1012.7 +13.4
07 15.09 З 1 20 км ясно +17.2 +15.1 87 +18 +23 1027.6 1012.9
08 15.09 З 1 20 км ясно +19.8 +15.0 74 +23 +31 комфорт 1027.4 1012.9
09 15.09 СВ 1 20 км 1/1 1000 м
[Cu hum]
+22.4 +15.7 66 +26 +37 жарко 1027.1 1012.7
10 15.09 СВ 2 20 км 3/3 1000 м
[Cu hum]
+25.0 +13.9 50 +27 +35 жарко 1026.5 1012.3
11 15.09 Ю 2 20 км 4/4 1000 м
[Cu Sc]
+26.0 +12.4 43 +28 +35 жарко 1025.8 1011.6
12 15.09 С 3 20 км 4/4 1000 м
[Cu Sc]
+26.8 +12.0 40 +28 +33 жарко 1024.9 1010.8
13 15.09 СВ 2 20 км 3/3 1000 м
[Cu hum]
+27.0 +11.9 39 +28 +34 жарко 1023.8 1009.7
14 15.09 СВ 2 20 км ясно +27.6 +11.9 38 +29 +34 жарко 1023.1 1009.0
15 15.09 СВ 1 20 км ясно +27.5 +11.7 37 +28 +31 жарко 1022.4 1008.3
16 15.09 С 1 20 км ясно +26.6 +11.5 39 +28 +28 жарко 1022.1 1008.0
17 15.09 СВ 1 20 км ясно +24.1 +11.7 46 +26 +26 жарко 1022.1 1007.9
18 15.09 Ю 1 20 км ясно +20.4 +13.6 65 +24 +24 комфорт 1022.3 1007.9 +28.0
19 15.09 ЮЗ 1 20 км ясно +19.4 +13.9 70 +22 +22 комфорт 1022.5 1008.0
20 15.09 Ю 1 20 км ясно +18.0 +13.6 75 +19 +19 1022.6 1008.1
21 15.09 ЮЗ 1 20 км ясно +16.5 +13.0 80 +17 +17 1022.6 1008.0
22 15.09 Ю 1 20 км ясно +16.4 +13.4 82 +17 +17 1022.1 1007.5
23 15.09 ЮЗ 1 20 км ясно +14.5 +11.9 84 +15 +15 1022.1 1007.4
00 16.09 Ю 1 20 км ясно +14.3 +12.1 87 +15 +15 1021.8 1007.1
01 16.09 штиль 0 20 км ясно +13.0 +11.3 89 +12 +12 1021.5 1006.7
02 16.09 Ю 1 20 км ясно +13.0 +11.3 89 +13 +13 1021.4 1006.6
03 16.09 Ю 1 20 км ясно +13.2 +11.6 90 +13 +13 1021.2 1006.4
04 16.09 В 1 20 км ясно +11.4 +10.0 91 +11 +11 1021.1 1006.2
05 16.09 В 1 20 км ясно +11.6 +10.5 93 +11 +11 1021.3 1006.5
06 16.09 ЮЗ 1 20 км ясно +14.3 +12.1 87 +15 +16 1021.1 1006.5 +11.1
07 16.09 З 1 20 км ясно +16.7 +13.2 80 +18 +22 1021.0 1006.5
08 16.09 З 1 20 км ясно +19.8 +13.1 65 +23 +31 комфорт 1020.8 1006.5
09 16.09 ЮЗ 1 20 км ясно +22.8 +14.4 59 +26 +37 жарко 1020.3 1006.1
10 16.09 СВ 1 20 км ясно +25.7 +12.1 43 +27 +40 жарко 1019.5 1005.5
11 16.09 СЗ 2 20 км ясно +27.0 +11.7 39 +28 +40 жарко 1018.9 1005.0
12 16.09 С 2 20 км ясно +28.2 +12.5 38 +30 +40 жарко 1018.1 1004.2
13 16.09 С 2 20 км ясно +29.9 +13.2 36 +31 +39 жарко 1017.4 1003.6
14 16.09 С 2 20 км ясно +29.2 +10.2 31 +29 +34 жарко 1016.8 1002.9
15 16.09 С 1 20 км 6/0
[Cs]
+28.6 +9.1 30 +29 +31 жарко 1016.3 1002.4
16 16.09 В 1 20 км 6/0
[Cs]
+28.0 +10.1 33 +28 +29 жарко 1016.0 1002.0
17 16.09 Ю 1 20 км ясно +23.7 +12.5 49 +26 +26 жарко 1016.2 1002.0
18 16.09 Ю 1 20 км ясно +20.7 +11.1 54 +24 +24 комфорт 1016.5 1002.2 +29.9
19 16.09 Ю 1 20 км ясно +18.6 +12.3 67 +20 +20 1017.1 1002.7
20 16.09 ЮВ 1 20 км ясно +17.0 +11.9 72 +18 +18 1017.1 1002.7
21 16.09 Ю 1 20 км ясно +15.9 +10.9 72 +17 +17 1017.2 1002.7
22 16.09 Ю 1 20 км ясно +15.0 +11.6 80 +16 +16 1017.2 1002.7
23 16.09 штиль 0 20 км ясно +14.9 +11.9 82 +15 +15 1017.2 1002.8
00 17.09 Ю 1 20 км ясно +14.0 +11.2 83 +14 +14 1016.6 1002.0
01 17.09 Ю 1 20 км ясно +12.8 +10.7 87 +13 +13 1016.2 1001.5
02 17.09 Ю 1 20 км ясно +12.8 +10.7 87 +13 +13 1016.1 1001.4
03 17.09 штиль 0 20 км ясно +12.6 +11.7 94 +12 +12 1015.8 1000.7
04 17.09 Ю 1 20 км ясно +11.2 +9.0 86 +11 +11 1015.5 1000.7
05 17.09 штиль 0 20 км ясно +11.3 +9.9 91 +11 +11 1016.1 1001.4
06 17.09 ЮЗ 2 20 км ясно +13.4 +10.8 84 +13 +14 1016.1 1001.5 +11.1
07 17.09 ЮЗ 2 20 км 1/0
[Ac trans]
+17.4 +11.8 70 +18 +21 1015.9 1001.5
08 17.09 ЮЗ 1 20 км 3/0
[Ac trans]
+20.7 +12.3 59 +24 +30 комфорт 1015.7 1001.4
09 17.09 З 1 20 км 4/0
[Ac trans]
+24.6 +12.6 47 +26 +35 жарко 1015.3 1001.3
10 17.09 С 1 20 км 4/0
[Ac trans]
+26.6 +12.4 41 +28 +38 жарко 1014.7 1000.8
11 17.09 С 2 20 км 3/0
[Ac trans]
+27.7 +11.6 37 +29 +38 жарко 1014.0 1000.2
12 17.09 СВ 1 20 км 4/0
[Cs]
+28.8 +12.3 36 +30 +41 жарко 1013.1 999.3
14 17.09 С 2 20 км ясно +30.1 +11.3 31 +30 +35 жарко 1012.0 998.2
15 17.09 С 2 20 км 1/0
[Ci fib]
+29.7 +10.5 30 +30 +32 жарко 1011.7 997.9
16 17.09 штиль 0 20 км ясно +28.7 +11.9 35 +30 +30 жарко 1011.6 997.8
17 17.09 З 1 20 км ясно +25.2 +13.9 50 +28 +28 жарко 1012.0 998.0
18 17.09 Ю 1 20 км ясно +22.5 +14.6 61 +26 +26 жарко 1012.3 998.2 +30.3
19 17.09 Ю 1 20 км ясно +21.3 +15.0 67 +24 +24 комфорт 1012.7 998.6
20 17.09 Ю 1 20 км ясно +19.8 +15.2 75 +23 +23 комфорт 1013.2 998.9
21 17.09 Ю 1 20 км ясно +19.3 +15.5 79 +22 +22 комфорт 1013.5 999.2
22 17.09 штиль 0 20 км 1/0
[Ac trans]
+17.2 +14.8 86 +17 +17 1013.6 999.2
23 17.09 ЮЗ 1 20 км ясно +17.3 +15.1 87 +18 +18 1013.4 999.0
00 18.09 ЮЗ 1 20 км ясно +17.0 +15.1 89 +18 +18 1013.5 999.1
01 18.09 С 1 20 км 4/0
[Ac trans]
+15.9 +14.1 89 +17 +17 1014.5 1000.0
02 18.09 штиль 0 20 км 8/0
[Ac As]
+16.4 +15.0 91 +16 +16 1015.7 1001.2
03 18.09 С 1 20 км 9/0
[Ac As]
+16.7 +15.1 90 +18 +18 1017.0 1002.5
04 18.09 С 3 20 км 8/0
[Ac As]
+17.3 +15.9 91 +17 +17 1018.2 1003.7
05 18.09 С 3 20 км слаб. дождь 10/0
[As op]
+16.5 +13.2 81 +16 +16 1019.4 1005.0
06 18.09 С 2 10 км слаб. дождь 10/0 600 м
[As op]
+15.1 +14.1 94 +15 +15 1021.1 1006.5 +15.1 0.8
07 18.09 В 1 10 км слаб. дождь 10/0
[As op]
+14.0 +12.8 92 +14 +15 1022.1 1007.4
08 18.09 ЮВ 2 10 км в посл. час дождь 10/10 600 м
[Sc]
+14.4 +13.1 92 +14 +14 1022.9 1008.3
09 18.09 В 1 4000 м дождь 10/0
[As op]
+13.7 +12.7 94 +14 +16 1023.7 1009.1
10 18.09 ЮВ 1 20 км в посл. час дождь 10/10 1000 м
[Sc]
+14.7 +13.1 90 +15 +15 1023.7 1009.2
11 18.09 ЮЗ 2 20 км 10/10 1000 м
[Sc]
+16.0 +12.5 80 +16 +16 1023.5 1009.1
12 18.09 З 2 20 км 10/10 1000 м
[Sc]
+16.0 +11.9 77 +16 +16 1023.2 1008.8 3
13 18.09 З 2 20 км 10/10 1000 м
[Sc]
+16.2 +12.3 78 +16 +16 1023.1 1008.9
14 18.09 З 2 20 км 10/10 1000 м
[Sc]
+16.3 +12.2 77 +16 +16 1022.9 1008.3
15 18.09 З 2 20 км 10/0
[Ac As]
+16.2 +12.1 77 +16 +17 1022.9 1008.3
16 18.09 СЗ 1 20 км 10/0
[Ac As]
+15.8 +11.9 78 +17 +17 1022.8 1008.2
17 18.09 С 1 20 км 10/0
[Ac As]
+15.3 +11.9 80 +16 +16 1023.0 1008.3
18 18.09 штиль 0 20 км {дождь} 10/10 1000 м
[Sc]
+14.7 +12.0 84 +14 +14 1023.2 1008.5 +16.5 3
19 18.09 штиль 0 20 км 10/10 1000 м
[Sc]
+14.3 +12.1 87 +14 +14 1023.4 1008.6
20 18.09 штиль 0 20 км 9/9 1000 м
[Sc]
+14.0 +12.3 89 +14 +14 1023.6 1008.8
21 18.09 штиль 0 20 км 4/4 1000 м
[Sc]
+12.9 +11.5 91 +12 +12 1023.6 1008.8
22 18.09 Ю 1 20 км 6/6 1000 м
[Sc]
+12.6 +11.6 94 +13 +13 1023.6 1008.8
23 18.09 штиль 0 20 км 6/6 1000 м
[Sc]
+11.5 +10.4 93 +11 +11 1023.7 1008.8
00 19.09 Ю 1 20 км 6/6 1000 м
[Sc]
+11.1 +10.0 93 +11 +11 1023.7 1008.8
01 19.09 Ю 1 20 км 3/3 1000 м
[Sc]
+10.3 +9.2 93 +10 +10 1023.8 1008.8
02 19.09 Ю 1 20 км 3/3 1000 м
[Sc]
+9.6 +8.5 93 +9 +9 1023.6 1008.6
03 19.09 Ю 1 20 км 1/1 1000 м
[Sc]
+9.3 +8.2 93 +9 +9 1022.4 1008.4
04 19.09 Ю 1 20 км 4/4 1000 м
[Sc]
+8.6 +7.6 93 +8 +8 1022.3 1008.3
05 19.09 Ю 1 20 км 5/0
[Ac As]
+8.4 +7.4 93 +8 +8 1023.8 1008.8
06 19.09 ЮЗ 1 20 км 6/0
[Ac As]
+9.8 +8.5 92 +9 +10 1024.1 1009.2 +8.0
07 19.09 В 1 20 км 6/0
[Ac As]
+12.4 +9.9 85 +12 +15 1024.3 1009.5
08 19.09 В 2 20 км 6/0
[Ac As]
+14.7 +9.7 72 +14 +18 1024.5 1009.8
09 19.09 ЮВ 1 20 км 8/0
[Ac As]
+16.5 +7.1 54 +17 +22 1024.4 1009.8
10 19.09 С 2 20 км 8/0
[Ac As]
+17.4 +6.2 48 +18 +23 1024.4 1009.9
11 19.09 С 3 20 км 8/0
[Ac As]
+18.0 +3.4 38 +18 +22 1023.8 1009.4
12 19.09 С 4 20 км 9/0
[Ac As]
+18.4 +3.0 36 +18 +21 1023.8 1009.4
13 19.09 С 3 20 км 9/0
[Ac As]
+18.0 +3.4 38 +18 +20 1023.4 1009.0
14 19.09 С 2 30 км 10/0
[Ac As]
+17.6 +3.1 38 +18 +19 1023.5 1009.0
15 19.09 С 2 30 км 10/0
[Ac As]
+17.2 +2.2 36 +18 +18 1023.5 1009.0
16 19.09 С 1 30 км 10/10 1000 м
[Sc]
+16.4 +4.3 45 +17 +17 1024.0 1009.4
17 19.09 З 1 30 км 10/10 1000 м
[Sc]
+14.7 +6.1 56 +15 +15 1024.4 1009.7
18 19.09 Ю 1 30 км 8/0
[Ac As]
+13.7 +7.1 64 +14 +14 1024.8 1010.0 +18.5
19 19.09 ЮЗ 1 30 км 5/0
[Ac As]
+11.8 +7.9 77 +12 +12 1025.3 1010.4
20 19.09 ЮЗ 2 30 км 10/0
[Ac As]
+11.8 +7.3 74 +11 +11 1025.9 1011.0
21 19.09 ЮЗ 2 30 км 10/0
[Ac As]
+11.4 +7.8 79 +10 +10 1026.3 1011.4
22 19.09 ЮЗ 2 30 км 10/0
[Ac As]
+11.0 +8.0 82 +10 +10 1026.5 1011.6
23 19.09 штиль 0 30 км 10/0
[Ac As]
+10.2 +8.3 88 +9 +9 1026.5 1001.1
00 20.09 ЮЗ 1 30 км 5/0
[Ac trans]
+9.7 +6.4 80 +9 +9 1026.9 1011.9
01 20.09 Ю 1 30 км ясно +7.8 +5.8 87 +7 +7 1027.0 1011.9
02 20.09 Ю 1 30 км ясно +7.8 +5.8 87 +7 +7 1027.0 1011.9
03 20.09 ЮЗ 1 30 км ясно +7.0 +4.9 86 +6 +6 1027.0 1011.9
04 20.09 ЮЗ 1 30 км ясно +7.0 +4.3 83 +6 +6 1027.0 1011.9
05 20.09 ЮЗ 2 30 км ясно +6.0 +4.3 89 +4 +4 1027.3 1012.1
06 20.09 ЮЗ 1 20 км ясно +6.6 +4.7 88 +6 +7 1027.2 1012.1 +6.0
07 20.09 ЮЗ 1 20 км ясно +9.8 +6.1 78 +9 +13 1027.5 1012.6
08 20.09 З 2 30 км ясно +13.2 +3.9 53 +13 +19 1027.6 1012.8
09 20.09 СЗ 2 30 км 1/1 1000 м
[Cu hum]
+15.8 +4.5 47 +16 +24 1027.5 1012.8
10 20.09 СЗ 3 20 км 6/3 1000 м
[Cu med, cong Cs]
+16.4 +2.9 40 +16 +22 1027.3 1012.6
11 20.09 СЗ 3 20 км 6/3 1000 м
[Cu med, cong Cs]
+17.4 +2.5 37 +17 +23 1026.6 1012.1

 

Местоположение метеостанции Лозница (Сербия): широта 44.55 долгота 19.23 высота над уровнем моря 122 м.

В архиве по умолчанию представлена погода в Лознице за последнюю неделю. Архивные данные за месяц целиком и за предыдущие месяцы, начиная с января 2011 года, Вы можете получить, выбрав интересующий диапазон дат из раскрывающегося списка и нажав кнопку "Ввод!".


*Определитесь, кто Вы:
робот инопланетянин человек

Внимание! Время в таблицах - всемирное. Для получения местного времени необходимо прибавить поправку, которая равна 1 ч.

Смотрите также архив погоды в соседних городах и на ближайших метеорологических станциях:

Погода в Тузле (Босния и Герцеговина) (42 км)
Погода в Валево (Сербия) (60 км)
Погода в Сремска-Митровице (Сербия) (66 км)
Погода в Градачаце (Босния и Герцеговина) (73 км)
Погода в Градиште (Хорватия) (79 км)
Погода в Белград аэропорту (Сербия) (88 км)
Погода в Сараево (Босния и Герцеговина) (99 км)
Погода в Златиборе (Сербия) (99 км)
Погода в Нови-Саде (Сербия) (100 км)
Погода в Белграде (Сербия) (102 км)

Пояснения к столбцам:

Ветер - указаны скорость ветра в м/с - средняя за 10 мин, порывы в срок и между сроками (в фигурных скобках) и направление, откуда дует ветер: С - северный, СВ - северо-восточный, В - восточный, ЮВ - юго-восточный, Ю - южный, ЮЗ - юго-западный, З - западный, СЗ - северо-западный.
Видимость - горизонтальная дальность видимости в метрах или километрах. При видимости от 1 до 10 км при отсутствии осадков обычно наблюдается дымка, при ухудшении видимости до 1 км и менее - туман. В сухую погоду видимость может ухудшаться дымом, пылью или мглою.
Явления - указаны атмосферные явления, наблюдавшиеся в срок или в последний час перед сроком; фигурными скобками обозначены явления, наблюдавшиеся между сроками (за 1-3 часа до срока); квадратными скобками обозначены град или гололедные отложения с указанием их диаметра в мм.
Облачность - указаны через наклонную черту общая и нижняя облачность в баллах и высота нижней границы облаков в метрах; квадратными скобками обозначены формы облаков: Ci - перистые, Cs - перисто-слоистые, Cc - перисто-кучевые, Ac - высококучевые, As - высокослоистые, Sc - слоисто-кучевые, Ns - слоисто-дождевые, Cu - кучевые, Cb - кучево-дождевые. Подробнее классификацию облаков см. в Атласе облаков (PDF).
T - Температура воздуха - температура, измеренная на высоте 2 м над землей.
Td - Температура точки росы - температура, при понижении до которой содержащийся в воздухе водяной пар достигнет насыщения.
f - Относительная влажность воздуха - влажноcть воздуха, измеренная на высоте 2 м над землей.
Te - Эффективная температура - температура, которую ощущает одетый по сезону человек в тени. Характеристика душности погоды. При расчете учитывается влияние влажности воздуха и скорости ветра на теплоощущения человека.
Tes - Эффективная температура на солнце - температура, которую ощущает человек, с поправкой на солнечный нагрев. Характеристика знойности погоды. Зависит от высоты солнца над горизонтом, облачности и скорости ветра. Ночью, в пасмурную погоду, а также при ветре 12 м/с и более поправка равна нулю.
P - Атмосферное давление - приведенное к уровню моря атмосферное давление.
Po - Атмосферное давление - измеренное на уровне метеостанции атмосферное давление.
Tmin - Минимальная температура - минимум температуры воздуха на высоте 2 м над землей.
Tmax - Максимальная температура - максимум температуры воздуха на высоте 2 м над землей.
R - Количество осадков - Количество выпавших осадков за период времени, мм. При наведении курсора мыши на число - период времени, за который выпало указанное количество осадков.
R24 - Количество осадков - Количество выпавших осадков за 24 часа, мм.
S - Снежный покров - Высота снежного покрова, см. При наведении курсора мыши на число - состояние снежного покрова и степень покрытия местности в баллах.